Harlingen, TX

6:50 AM CST on December 09, 2016 (GMT -0600)
Valley International

Weather History for KHRL - March, 2013

Change the Weather History Date:

Saturday, March 30, 2013

  Actual Average Record
Temperature  
Mean Temperature 76 °F 72 °F  
Max Temperature 88 °F 83 °F 99 °F (1946)
Min Temperature 64 °F 61 °F 35 °F (1930)
Degree Days  
Heating Degree Days 0 1  
Month to date heating degree days 43 48  
Since 1 July heating degree days 391 616  
Cooling Degree Days 11 8  
Month to date cooling degree days 147 163  
Year to date cooling degree days 341 288  
Growing Degree Days 24 (Base 50)    
Moisture  
Dew Point 64 °F    
Average Humidity 71    
Maximum Humidity 93    
Minimum Humidity 48    
Precipitation  
Precipitation 0.00 in 0.04 in 1.19 in (1988)
Month to date precipitation 0.06 1.25  
Year to date precipitation 2.80 3.72  
Sea Level Pressure  
Sea Level Pressure 30.01 in    
Wind  
Wind Speed 12 mph (SE)    
Max Wind Speed 24 mph    
Max Gust Speed 28 mph    
Visibility 10 miles    
Events      
T = Trace of Precipitation, MM = Missing Value Source: NWS Daily Summary

Daily Weather History Graph

Daily Weather History Graph

Search for Another Location

Airport or City:

Trip Planner

Search our weather history database for the weather conditions in past years. The results will help you decide how hot, cold, wet, or windy it might be!

Date:

Astronomy

Mar. 30, 2013 Rise Set
Actual Time 7:23 AM CDT 7:46 PM CDT
Civil Twilight 7:00 AM CDT 8:09 PM CDT
Nautical Twilight 6:33 AM CDT 8:37 PM CDT
Astronomical Twilight 6:05 AM CDT 9:04 PM CDT
Moon 11:31 PM CDT (3/30) 9:41 AM CDT (3/30)
Length of Visible Light 13h 09m
Length of Day
12h 23m
Waning Gibbous, 86% of the Moon is Illuminated
Mar 30
Waning Gibbous
Apr 2
Last Quarter
Apr 10
New
Apr 18
First Quarter
Apr 25
Full

Hourly Weather History & Observations

Time (CDT) Temp. Heat Index Dew Point Humidity Pressure Visibility Wind Dir Wind Speed Gust Speed Precip Events Conditions
12:52 AM 69.1 °F - 63.0 °F 81% 30.08 in 10.0 mi SE 10.4 mph - N/A   Mostly Cloudy
1:52 AM 68.0 °F - 63.0 °F 84% 30.06 in 10.0 mi SE 9.2 mph - N/A   Clear
2:52 AM 66.9 °F - 62.1 °F 84% 30.05 in 10.0 mi ESE 6.9 mph - N/A   Clear
3:52 AM 64.9 °F - 62.1 °F 90% 30.04 in 10.0 mi East 5.8 mph - N/A   Clear
4:52 AM 66.0 °F - 63.0 °F 90% 30.02 in 10.0 mi East 6.9 mph - N/A   Mostly Cloudy
5:26 AM 66.2 °F - 64.4 °F 94% 30.01 in 10.0 mi ESE 8.1 mph - N/A   Overcast
5:52 AM 66.9 °F - 64.0 °F 90% 30.02 in 10.0 mi ESE 6.9 mph - N/A   Overcast
6:05 AM 66.2 °F - 64.4 °F 94% 30.02 in 10.0 mi ESE 8.1 mph - N/A   Overcast
6:52 AM 68.0 °F - 64.9 °F 90% 30.03 in 10.0 mi ESE 8.1 mph - N/A   Overcast
7:42 AM 68.0 °F - 64.4 °F 88% 30.03 in 10.0 mi ESE 5.8 mph - N/A   Overcast
7:52 AM 69.1 °F - 66.0 °F 90% 30.04 in 10.0 mi ESE 5.8 mph - N/A   Overcast
8:52 AM 70.0 °F - 66.9 °F 90% 30.06 in 10.0 mi SE 8.1 mph - N/A   Mostly Cloudy
9:16 AM 71.6 °F - 66.2 °F 83% 30.07 in 10.0 mi SE 8.1 mph - N/A   Overcast
9:52 AM 75.9 °F - 66.9 °F 74% 30.06 in 10.0 mi South 9.2 mph - N/A   Mostly Cloudy
10:52 AM 78.1 °F - 66.0 °F 66% 30.05 in 10.0 mi South 13.8 mph - N/A   Mostly Cloudy
11:52 AM 80.1 °F 81.9 °F 64.9 °F 60% 30.05 in 10.0 mi SSE 12.7 mph - N/A   Mostly Cloudy
12:05 PM 82.4 °F 83.9 °F 64.4 °F 54% 30.04 in 10.0 mi SSE 12.7 mph - N/A   Mostly Cloudy
12:52 PM 82.9 °F 84.4 °F 64.0 °F 53% 30.03 in 10.0 mi South 12.7 mph - N/A   Mostly Cloudy
1:52 PM 84.9 °F 86.1 °F 64.0 °F 49% 30.00 in 10.0 mi SSE 13.8 mph 21.9 mph N/A   Clear
2:52 PM 84.9 °F 85.4 °F 62.1 °F 46% 29.97 in 10.0 mi SSE 13.8 mph 17.3 mph N/A   Mostly Cloudy
3:52 PM 82.9 °F 84.0 °F 63.0 °F 51% 29.95 in 10.0 mi SSE 17.3 mph 24.2 mph N/A   Overcast
3:55 PM 82.4 °F 83.4 °F 62.6 °F 51% 29.94 in 10.0 mi SSE 19.6 mph 25.3 mph N/A   Mostly Cloudy
4:52 PM 84.9 °F 85.9 °F 63.0 °F 48% 29.92 in 10.0 mi SSE 17.3 mph 25.3 mph N/A   Mostly Cloudy
5:52 PM 82.9 °F 84.4 °F 64.0 °F 53% 29.92 in 10.0 mi SSE 20.7 mph 26.5 mph N/A   Mostly Cloudy
6:52 PM 78.1 °F - 64.0 °F 62% 29.93 in 10.0 mi SSE 19.6 mph 25.3 mph N/A   Clear
7:52 PM 73.9 °F - 64.0 °F 71% 29.94 in 10.0 mi SSE 17.3 mph - N/A   Clear
8:52 PM 73.0 °F - 64.0 °F 73% 29.94 in 10.0 mi SSE 11.5 mph - N/A   Clear
9:52 PM 71.1 °F - 64.0 °F 78% 29.96 in 10.0 mi SSE 11.5 mph - N/A   Clear
10:52 PM 70.0 °F - 64.9 °F 84% 29.97 in 10.0 mi SSE 11.5 mph - N/A   Clear
11:52 PM 69.1 °F - 64.9 °F 87% 29.97 in 10.0 mi SSE 9.2 mph - N/A   Clear